Location: Trementina
(35.4589°N, 104.4243°W)
Time: 09:05:11
(UTC+00:00)

BlueWalker 3 - Visible Passes

Search period start: 04 December 2022 00:00
Search period end: 14 December 2022 00:00
Orbit: 501 x 519 km, 53.2° (Epoch: 03 December)

Date Brightness Start Highest point End Pass type
(mag) Time Alt. Az. Time Alt. Az. Time Alt. Az.
08 Dec 4.4 01:42:37 10° NNW 01:43:20 14° NNW 01:43:20 14° NNW visible
09 Dec 3.6 01:24:09 10° NNW 01:26:08 22° N 01:26:08 22° N visible
10 Dec 2.9 01:05:42 10° NNW 01:09:06 29° NE 01:09:06 29° NE visible
11 Dec 2.8 00:47:13 10° NNW 00:50:45 31° NE 00:52:21 22° E visible
11 Dec 4.7 02:26:00 10° WNW 02:27:15 17° W 02:27:15 17° W visible
12 Dec 2.7 00:28:46 10° NNW 00:32:19 33° NE 00:35:52 10° ESE visible
12 Dec 4.0 02:07:38 10° WNW 02:10:52 25° SW 02:10:56 25° SW visible
13 Dec 2.6 00:10:18 10° NNW 00:13:55 35° NE 00:17:30 10° ESE visible
13 Dec 4.2 01:49:16 10° WNW 01:52:24 23° SW 01:55:14 11° S visible
